Location: *
(44.9308°N, 123.0197°W)
Time: 22:30:08
(UTC+00:00)

Okean 2 Rocket - Pass Details

Date: 09 April 2020
Orbit: 616 x 642 km, 82.5° (Epoch: 02 June)

Event Time Altitude Azimuth Distance (km) Brightness Sun altitude
Rises 12:16:08 0° 342° (NNW) 2,950 6.7 -14.3°
Reaches altitude 10° 12:18:33 10° 332° (NNW) 2,039 5.7 -13.9°
Maximum altitude 12:22:33 32° 270° (W) 1,110 3.9 -13.3°
Enters shadow 12:25:44 14° 213° (SSW) 1,754 4.9 -12.8°
